When you browse on this site, cookies collect data to enhance your experience and personalize the content and advertising you see.
Visit our Privacy Policy to learn more. By continuing to use the site, you agree to this use of cookies and data.

Hourly Weather Khashuri

Today, 7 August, Friday

Time Temperature Precipitation Wind Pressure Humidity
00:00 +12°C° 0 mm 1 mps 615 mmHg 89%
01:00 +11°C° 0 mm 1 mps 615 mmHg 88%
02:00 +11°C° 0 mm 1 mps 615 mmHg 87%
03:00 +11°C° 0 mm 1 mps 615 mmHg 87%
04:00 +11°C° 0 mm 1 mps 615 mmHg 87%
05:00 +11°C° 0 mm 1 mps 615 mmHg 86%
06:00 +11°C° 0 mm 1 mps 615 mmHg 86%
07:00 +14°C° 0 mm 1 mps 616 mmHg 78%
08:00 +16°C° 0 mm 1 mps 617 mmHg 70%
09:00 +20°C° 0 mm 1 mps 618 mmHg 61%
10:00 +21°C° 0 mm 1 mps 618 mmHg 56%
11:00 +22°C° 0 mm 1 mps 618 mmHg 50%
12:00 +24°C° 0 mm 1 mps 619 mmHg 45%
13:00 +24°C° 0 mm 1 mps 618 mmHg 43%
14:00 +24°C° 0 mm 2 mps 618 mmHg 42%
15:00 +24°C° 0 mm 2 mps 618 mmHg 41%
16:00 +23°C° 0 mm 2 mps 617 mmHg 47%
17:00 +21°C° 0 mm 2 mps 617 mmHg 53%
18:00 +20°C° 0 mm 2 mps 617 mmHg 59%
19:00 +18°C° 0 mm 2 mps 616 mmHg 63%
20:00 +16°C° 0 mm 2 mps 616 mmHg 67%
21:00 +13°C° 0 mm 2 mps 615 mmHg 71%
22:00 +13°C° 0 mm 2 mps 615 mmHg 70%
23:00 +13°C° 0 mm 2 mps 615 mmHg 69%

Tomorrow, 8 August, Saturday

Time Temperature Precipitation Wind Pressure Humidity
00:00 +12°C° 0 mm 2 mps 615 mmHg 69%
01:00 +12°C° 0 mm 2 mps 614 mmHg 71%
02:00 +12°C° 0 mm 2 mps 614 mmHg 73%
03:00 +10°C° 0 mm 2 mps 613 mmHg 76%
04:00 +10°C° 0 mm 2 mps 613 mmHg 77%
05:00 +10°C° 0 mm 2 mps 613 mmHg 77%
06:00 +10°C° 0 mm 2 mps 613 mmHg 78%
07:00 +14°C° 0 mm 2 mps 614 mmHg 70%
08:00 +17°C° 0 mm 2 mps 615 mmHg 62%
09:00 +19°C° 0 mm 2 mps 616 mmHg 54%
10:00 +22°C° 0 mm 1 mps 616 mmHg 50%
11:00 +23°C° 0 mm 1 mps 616 mmHg 46%
12:00 +25°C° 0 mm 1 mps 617 mmHg 41%
13:00 +25°C° 0 mm 1 mps 616 mmHg 40%
14:00 +26°C° 0 mm 1 mps 616 mmHg 39%
15:00 +26°C° 0 mm 1 mps 616 mmHg 39%
16:00 +25°C° 0 mm 1 mps 615 mmHg 47%
17:00 +24°C° 0 mm 1 mps 615 mmHg 55%
18:00 +22°C° 0 mm 1 mps 614 mmHg 63%
19:00 +19°C° 0 mm 2 mps 614 mmHg 68%
20:00 +17°C° 0 mm 2 mps 613 mmHg 74%
21:00 +15°C° 0 mm 2 mps 612 mmHg 80%
22:00 +14°C° 0 mm 2 mps 612 mmHg 79%
23:00 +14°C° 0 mm 2 mps 612 mmHg 77%

Day after tomorrow, 9 August, Sunday

Time Temperature Precipitation Wind Pressure Humidity
00:00 +13°C° 0 mm 2 mps 612 mmHg 76%
01:00 +13°C° 0 mm 2 mps 611 mmHg 74%
02:00 +13°C° 0 mm 2 mps 611 mmHg 73%
03:00 +12°C° 0 mm 2 mps 611 mmHg 71%
04:00 +13°C° 0 mm 2 mps 611 mmHg 72%
05:00 +13°C° 0 mm 2 mps 611 mmHg 74%
06:00 +13°C° 0 mm 2 mps 611 mmHg 75%
07:00 +15°C° 0 mm 2 mps 612 mmHg 68%
08:00 +18°C° 0 mm 2 mps 612 mmHg 61%
09:00 +22°C° 0 mm 1 mps 613 mmHg 54%
10:00 +23°C° 0 mm 1 mps 614 mmHg 50%
11:00 +25°C° 0 mm 1 mps 614 mmHg 46%
12:00 +27°C° 0 mm 1 mps 615 mmHg 43%
13:00 +27°C° 0.3 mm 1 mps 614 mmHg 43%
14:00 +27°C° 0.3 mm 1 mps 614 mmHg 43%
15:00 +27°C° 0.3 mm 2 mps 614 mmHg 44%
16:00 +25°C° 0.5 mm 2 mps 613 mmHg 53%
17:00 +23°C° 0.5 mm 2 mps 613 mmHg 62%
18:00 +21°C° 0.5 mm 2 mps 612 mmHg 71%
19:00 +19°C° 0.1 mm 2 mps 612 mmHg 75%
20:00 +18°C° 0.1 mm 1 mps 611 mmHg 79%
21:00 +15°C° 0.1 mm 1 mps 611 mmHg 82%
22:00 +15°C° 0.2 mm 1 mps 611 mmHg 83%
23:00 +15°C° 0.2 mm 1 mps 611 mmHg 83%

10 August, Monday

Time Temperature Precipitation Wind Pressure Humidity
00:00 +14°C° 0.2 mm 1 mps 611 mmHg 84%
01:00 +14°C° 0.2 mm 1 mps 611 mmHg 84%
02:00 +13°C° 0.2 mm 2 mps 611 mmHg 84%
03:00 +13°C° 0.2 mm 2 mps 610 mmHg 84%
04:00 +13°C° 0.1 mm 2 mps 610 mmHg 84%
05:00 +13°C° 0.1 mm 2 mps 610 mmHg 84%
06:00 +13°C° 0.1 mm 2 mps 610 mmHg 84%
07:00 +15°C° 0 mm 2 mps 611 mmHg 76%
08:00 +17°C° 0 mm 2 mps 612 mmHg 67%
09:00 +20°C° 0 mm 2 mps 613 mmHg 59%
10:00 +21°C° 0 mm 2 mps 614 mmHg 55%
11:00 +24°C° 0 mm 2 mps 614 mmHg 51%
12:00 +25°C° 0 mm 2 mps 614 mmHg 47%
13:00 +25°C° 0.4 mm 2 mps 614 mmHg 50%
14:00 +24°C° 0.4 mm 3 mps 614 mmHg 53%
15:00 +24°C° 0.4 mm 3 mps 614 mmHg 55%
16:00 +21°C° 1.3 mm 3 mps 613 mmHg 64%
17:00 +20°C° 1.3 mm 2 mps 613 mmHg 73%
18:00 +19°C° 1.3 mm 1 mps 612 mmHg 82%
19:00 +18°C° 0.1 mm 1 mps 612 mmHg 85%
20:00 +16°C° 0.1 mm 1 mps 612 mmHg 88%
21:00 +15°C° 0.1 mm 1 mps 612 mmHg 91%
22:00 +14°C° 0 mm 1 mps 612 mmHg 91%
23:00 +14°C° 0 mm 1 mps 612 mmHg 92%

11 August, Tuesday

Time Temperature Precipitation Wind Pressure Humidity
00:00 +14°C° 0 mm 1 mps 612 mmHg 92%
01:00 +14°C° 0.1 mm 1 mps 612 mmHg 93%
02:00 +14°C° 0.1 mm 1 mps 612 mmHg 93%
03:00 +12°C° 0.1 mm 0 mps 612 mmHg 94%
04:00 +13°C° 0.4 mm 1 mps 612 mmHg 93%
05:00 +13°C° 0.4 mm 1 mps 612 mmHg 93%
06:00 +13°C° 0.4 mm 1 mps 612 mmHg 92%
07:00 +15°C° 0.1 mm 1 mps 613 mmHg 89%
08:00 +16°C° 0.1 mm 1 mps 613 mmHg 85%
09:00 +18°C° 0.1 mm 1 mps 614 mmHg 81%
10:00 +19°C° 0.6 mm 1 mps 614 mmHg 78%
11:00 +19°C° 0.6 mm 2 mps 614 mmHg 75%
12:00 +20°C° 0.6 mm 2 mps 614 mmHg 71%
13:00 +19°C° 1.1 mm 2 mps 614 mmHg 74%
14:00 +19°C° 1.1 mm 2 mps 614 mmHg 76%
15:00 +19°C° 1.1 mm 2 mps 614 mmHg 78%
16:00 +18°C° 0.5 mm 2 mps 613 mmHg 81%
17:00 +17°C° 0.5 mm 2 mps 613 mmHg 84%
18:00 +17°C° 0.5 mm 2 mps 613 mmHg 87%
19:00 +15°C° 0 mm 1 mps 613 mmHg 90%
20:00 +14°C° 0 mm 1 mps 613 mmHg 93%
21:00 +13°C° 0 mm 1 mps 613 mmHg 97%
22:00 +13°C° 0 mm 1 mps 613 mmHg 96%
23:00 +12°C° 0 mm 0 mps 613 mmHg 96%

12 August, Wednesday

Time Temperature Precipitation Wind Pressure Humidity
00:00 +12°C° 0 mm 0 mps 613 mmHg 95%
01:00 +12°C° 0 mm 0 mps 613 mmHg 95%
02:00 +11°C° 0 mm 0 mps 613 mmHg 96%
03:00 +11°C° 0 mm 0 mps 612 mmHg 96%
04:00 +12°C° 0 mm 0 mps 613 mmHg 95%
05:00 +12°C° 0 mm 0 mps 613 mmHg 95%
06:00 +12°C° 0 mm 0 mps 613 mmHg 95%
07:00 +13°C° 0 mm 0 mps 613 mmHg 90%
08:00 +15°C° 0 mm 1 mps 613 mmHg 85%
09:00 +18°C° 0 mm 1 mps 614 mmHg 81%
10:00 +19°C° 0.1 mm 1 mps 614 mmHg 75%
11:00 +20°C° 0.1 mm 1 mps 614 mmHg 69%
12:00 +22°C° 0.1 mm 1 mps 615 mmHg 63%
13:00 +21°C° 0.1 mm 2 mps 614 mmHg 64%
14:00 +21°C° 0.1 mm 2 mps 614 mmHg 65%
15:00 +21°C° 0.1 mm 2 mps 614 mmHg 66%
16:00 +20°C° 0.2 mm 2 mps 614 mmHg 71%
17:00 +19°C° 0.2 mm 2 mps 613 mmHg 77%
18:00 +18°C° 0.2 mm 2 mps 613 mmHg 82%
19:00 +17°C° 0.2 mm 2 mps 613 mmHg 86%
20:00 +15°C° 0.2 mm 1 mps 613 mmHg 90%
21:00 +14°C° 0.2 mm 1 mps 613 mmHg 94%
22:00 +14°C° 0.1 mm 1 mps 613 mmHg 93%
23:00 +14°C° 0.1 mm 1 mps 612 mmHg 93%
Show more